User: anonymous   Login
Location: Corcelles
(46.1547°N, 4.7234°E)
Time: 13:49:31
(UTC+00:00)
Language:

IRS-1C - Orbit

View from above orbital plane
View from above orbital plane
View from above satellite
View from above satellite

Ground track
Ground track

The orbit data is extracted from the following two-line orbital elements,

1 23751U 95072A   20262.84364278 -.00000014 +00000-0 +14039-4 0  9992
2 23751 098.8270 213.0752 0000930 088.6810 271.4474 14.22632402283285
Epoch (UTC): 18 September 2020 20:14:50
Eccentricity: 0.0000930
inclination: 98.8270°
perigee height: 816 km
apogee height: 817 km
right ascension of ascending node: 213.0752°
argument of perigee: 88.6810°
revolutions per day: 14.22632402
mean anomaly at epoch: 271.4474°
orbit number at epoch: 28328

The dashed part of the orbit path shows where the satellite is in the earth's shadow,  

DLR